User: anonymous   Login
Location: Brno
(49.2000°N, 16.6330°E)
Time: 13:44:09
(UTC+01:00)
Language:

Iridium 2 - Orbit

View from above orbital plane
View from above orbital plane
View from above satellite
View from above satellite

Ground track
Ground track

The orbit data is extracted from the following two-line orbital elements,

1 25527U 98066A   14329.23011682  .00007827  00000-0  48397-3 0  4557
2 25527 085.5332 221.9576 0008482 278.2800 237.7280 15.09665931876409
Epoch (UTC): 25 November 2014 05:31:22
Eccentricity: 0.0008482
inclination: 85.5332°
perigee height: 531 km
apogee height: 543 km
right ascension of ascending node: 221.9576°
argument of perigee: 278.2800°
revolutions per day: 15.09665931
mean anomaly at epoch: 237.7280°
orbit number at epoch: 87640

The dashed part of the orbit path shows where the satellite is in the earth's shadow,  

DLR